,,PA_Meas_PMT16A,,PR_Meas_QMR101_102,,RH_Meas_QMH101,,SR_Meas_QMS101,,TA_Meas_QMH101,,GenWind,,GenWind,
time,status,PA,status,PR,status,RH,status,SR,status,TA,status,DirAvg,status,SpdAvg,
2011-03-04, 00:00:04,VALID,917.734,VALID,0,VALID,94.881,VALID,0,VALID,19.2153,VALID,18,VALID,0.458984,
2011-03-04, 00:01:04,VALID,917.708,VALID,0,VALID,94.7972,VALID,0,VALID,19.1958,VALID,18,VALID,0.429688,
2011-03-04, 00:02:04,VALID,917.691,VALID,0,VALID,95.0335,VALID,0,VALID,19.2348,VALID,18,VALID,0.505859,
2011-03-04, 00:03:04,VALID,917.676,VALID,0,VALID,95.1174,VALID,0,VALID,19.2348,VALID,18,VALID,0.282031,
2011-03-04, 00:04:04,VALID,917.66,VALID,0,VALID,95.2241,VALID,0,VALID,19.2348,VALID,18,VALID,0.335156,
2011-03-04, 00:05:04,VALID,917.641,VALID,0,VALID,95.4071,VALID,0,VALID,19.2334,VALID,18,VALID,0.712109,
2011-03-04, 00:06:04,VALID,917.672,VALID,0,VALID,95.5138,VALID,0,VALID,19.2348,VALID,18,VALID,0.455859,
2011-03-04, 00:07:04,VALID,917.639,VALID,0,VALID,95.6357,VALID,0,VALID,19.2334,VALID,18,VALID,0.516016,
2011-03-04, 00:08:04,VALID,917.568,VALID,0,VALID,95.7577,VALID,0,VALID,19.2543,VALID,18,VALID,0.286719,
2011-03-04, 00:09:04,VALID,917.591,VALID,0,VALID,95.8187,VALID,0,VALID,19.2543,VALID,18,VALID,0,
2011-03-04, 00:10:04,VALID,917.555,VALID,0,VALID,95.7577,VALID,0,VALID,19.1958,VALID,18,VALID,0,
2011-03-04, 00:11:04,VALID,917.572,VALID,0,VALID,95.8797,VALID,0,VALID,19.2153,VALID,18,VALID,0,
2011-03-04, 00:12:04,VALID,917.575,VALID,0,VALID,95.7196,VALID,0,VALID,19.1373,VALID,18,VALID,0,
2011-03-04, 00:13:04,VALID,917.548,VALID,0,VALID,95.7577,VALID,0,VALID,19.0983,VALID,18,VALID,0,
2011-03-04, 00:14:04,VALID,917.526,VALID,0,VALID,95.7425,VALID,0,VALID,19.0817,VALID,18,VALID,0.246484,
2011-03-04, 00:15:04,VALID,917.503,VALID,0,VALID,95.895,VALID,0,VALID,19.0008,VALID,18,VALID,0.303125,
2011-03-04, 00:16:04,VALID,917.527,VALID,0,VALID,95.9636,VALID,0,VALID,18.9814,VALID,18,VALID,0,
2011-03-04, 00:17:04,VALID,917.55,VALID,0,VALID,96.0627,VALID,0,VALID,18.9814,VALID,18,VALID,0,
2011-03-04, 00:18:04,VALID,917.528,VALID,0,VALID,95.9483,VALID,0,VALID,18.9034,VALID,18,VALID,0.0015625,
2011-03-04, 00:19:04,VALID,917.499,VALID,0,VALID,96.1694,VALID,0,VALID,18.9229,VALID,18,VALID,0.00585938,
2011-03-04, 00:20:04,VALID,917.485,VALID,0,VALID,96.3524,VALID,0,VALID,18.9619,VALID,18,VALID,0,
2011-03-04, 00:21:04,VALID,917.459,VALID,0,VALID,96.3676,VALID,0,VALID,18.9619,VALID,18,VALID,0,
2011-03-04, 00:22:04,VALID,917.464,VALID,0,VALID,96.2304,VALID,0,VALID,18.8839,VALID,18,VALID,0,
2011-03-04, 00:23:04,VALID,917.461,VALID,0,VALID,96.2533,VALID,0,VALID,18.8449,VALID,18,VALID,0,
2011-03-04, 00:24:04,VALID,917.445,VALID,0,VALID,96.3752,VALID,0,VALID,18.8254,VALID,18,VALID,0,
2011-03-04, 00:25:04,VALID,917.451,VALID,0,VALID,96.3676,VALID,0,VALID,18.8059,VALID,18,VALID,0,
2011-03-04, 00:26:04,VALID,917.439,VALID,0,VALID,96.3524,VALID,0,VALID,18.7669,VALID,18,VALID,0.0121094,
2011-03-04, 00:27:04,VALID,917.427,VALID,0,VALID,96.4057,VALID,0,VALID,18.7474,VALID,18,VALID,0.349219,
2011-03-04, 00:28:04,VALID,917.405,VALID,0,VALID,96.3295,VALID,0,VALID,18.7084,VALID,18,VALID,0.396484,
2011-03-04, 00:29:05,VALID,917.398,VALID,0,VALID,96.4515,VALID,0.107441,VALID,18.7279,VALID,18,VALID,0.566406,
2011-03-04, 00:30:05,VALID,917.373,VALID,0,VALID,96.5201,VALID,0,VALID,18.7669,VALID,18,VALID,0.435547,
2011-03-04, 00:31:05,VALID,917.343,VALID,0,VALID,96.4743,VALID,0,VALID,18.7279,VALID,18,VALID,0.341797,
2011-03-04, 00:32:05,VALID,917.342,VALID,0,VALID,96.4972,VALID,0,VALID,18.7084,VALID,18,VALID,0.265625,
2011-03-04, 00:33:05,VALID,917.281,VALID,0,VALID,96.5429,VALID,0,VALID,18.7279,VALID,18,VALID,0.564844,
2011-03-04, 00:34:05,VALID,917.261,VALID,0,VALID,96.6344,VALID,0,VALID,18.7864,VALID,18,VALID,0.584375,
2011-03-04, 00:35:05,VALID,917.207,VALID,0,VALID,96.6497,VALID,0,VALID,18.7864,VALID,19,VALID,0.795313,
2011-03-04, 00:36:05,VALID,917.158,VALID,0,VALID,96.6878,VALID,0,VALID,18.8059,VALID,19,VALID,1.06602,
2011-03-04, 00:37:05,VALID,917.151,VALID,0,VALID,96.6802,VALID,0,VALID,18.7864,VALID,19,VALID,0.946875,
2011-03-04, 00:38:05,VALID,917.139,VALID,0,VALID,96.6878,VALID,0,VALID,18.8059,VALID,20,VALID,0.917188,
2011-03-04, 00:39:05,VALID,917.13,VALID,0,VALID,96.7183,VALID,0.107441,VALID,18.785,VALID,20,VALID,0.836719,
2011-03-04, 00:40:05,VALID,917.125,VALID,0,VALID,96.7488,VALID,0,VALID,18.8254,VALID,69,VALID,0.878125,
2011-03-04, 00:41:05,VALID,917.096,VALID,0,VALID,96.7488,VALID,0,VALID,18.8059,VALID,130,VALID,0.580859,
2011-03-04, 00:42:05,VALID,917.084,VALID,0,VALID,96.7716,VALID,0,VALID,18.8059,VALID,130,VALID,0.554297,
2011-03-04, 00:43:05,VALID,917.057,VALID,0,VALID,96.764,VALID,0,VALID,18.7669,VALID,130,VALID,0.534766,
2011-03-04, 00:44:05,VALID,917.033,VALID,0,VALID,96.7945,VALID,0,VALID,18.7669,VALID,130,VALID,0.594531,
2011-03-04, 00:45:05,VALID,917.033,VALID,0,VALID,96.8326,VALID,0,VALID,18.8059,VALID,130,VALID,0.848828,
2011-03-04, 00:46:05,VALID,917.013,VALID,0,VALID,96.8707,VALID,0,VALID,18.8449,VALID,130,VALID,0.731641,
2011-03-04, 00:47:05,VALID,917.009,VALID,0,VALID,96.8707,VALID,0,VALID,18.8254,VALID,130,VALID,0.311328,
2011-03-04, 00:48:05,VALID,917.026,VALID,0,VALID,96.764,VALID,0,VALID,18.8059,VALID,130,VALID,0,
2011-03-04, 00:49:05,VALID,917.009,VALID,0,VALID,96.4819,VALID,0,VALID,18.5914,VALID,130,VALID,0,
2011-03-04, 00:50:05,VALID,916.982,VALID,0,VALID,96.5658,VALID,0,VALID,18.494,VALID,130,VALID,0.127344,
2011-03-04, 00:51:05,VALID,916.934,VALID,0,VALID,96.7488,VALID,0,VALID,18.533,VALID,130,VALID,0.361719,
2011-03-04, 00:52:05,VALID,916.963,VALID,0,VALID,96.825,VALID,0,VALID,18.5135,VALID,130,VALID,0.276172,
2011-03-04, 00:53:05,VALID,916.942,VALID,0,VALID,96.7716,VALID,0,VALID,18.494,VALID,130,VALID,0.279297,
2011-03-04, 00:54:05,VALID,916.896,VALID,0,VALID,96.7793,VALID,0,VALID,18.455,VALID,130,VALID,0.259766,
2011-03-04, 00:55:05,VALID,916.858,VALID,0,VALID,96.8631,VALID,0,VALID,18.4355,VALID,130,VALID,0.250391,
2011-03-04, 00:56:05,VALID,916.859,VALID,0,VALID,96.9698,VALID,0,VALID,18.5135,VALID,130,VALID,0.229687,
2011-03-04, 00:57:05,VALID,916.822,VALID,0,VALID,97.0308,VALID,0,VALID,18.572,VALID,130,VALID,0.186719,
2011-03-04, 00:58:05,VALID,916.783,VALID,0,VALID,96.947,VALID,0,VALID,18.572,VALID,130,VALID,0,
2011-03-04, 00:59:05,VALID,916.781,VALID,0,VALID,96.947,VALID,0,VALID,18.533,VALID,130,VALID,0,
2011-03-04, 01:00:05,VALID,916.77,VALID,0,VALID,96.9698,VALID,0,VALID,18.5135,VALID,130,VALID,0,
2011-03-04, 01:01:05,VALID,916.713,VALID,0,VALID,96.9851,VALID,0,VALID,18.533,VALID,130,VALID,0.395703,
2011-03-04, 01:02:05,VALID,916.716,VALID,0,VALID,97.069,VALID,0,VALID,18.5914,VALID,130,VALID,0.726172,
2011-03-04, 01:03:05,VALID,916.681,VALID,0,VALID,97.1147,VALID,0,VALID,18.6499,VALID,130,VALID,0.810547,
2011-03-04, 01:04:05,VALID,916.652,VALID,0,VALID,97.0613,VALID,0,VALID,18.6304,VALID,130,VALID,0.359375,
2011-03-04, 01:05:05,VALID,916.628,VALID,0,VALID,97.0766,VALID,0,VALID,18.6889,VALID,130,VALID,0.742188,
2011-03-04, 01:06:05,VALID,916.6,VALID,0,VALID,97.1299,VALID,0,VALID,18.7279,VALID,130,VALID,0.791797,
2011-03-04, 01:07:05,VALID,916.6,VALID,0,VALID,97.0842,VALID,0,VALID,18.6889,VALID,130,VALID,0.58125,
2011-03-04, 01:08:05,VALID,916.571,VALID,0,VALID,97.069,VALID,0,VALID,18.7084,VALID,130,VALID,1.12461,
2011-03-04, 01:09:05,VALID,916.541,VALID,0,VALID,97.1376,VALID,0,VALID,18.7683,VALID,130,VALID,1.0293,
2011-03-04, 01:10:05,VALID,916.568,VALID,0,VALID,97.1299,VALID,0,VALID,18.8297,VALID,130,VALID,0.995313,
2011-03-04, 01:11:05,VALID,916.609,VALID,0,VALID,97.1071,VALID,0,VALID,18.7878,VALID,130,VALID,0.855078,
2011-03-04, 01:12:05,VALID,916.61,VALID,0,VALID,97.0994,VALID,0,VALID,18.7279,VALID,130,VALID,1.00664,
2011-03-04, 01:13:05,VALID,916.617,VALID,0,VALID,97.1071,VALID,0,VALID,18.7279,VALID,130,VALID,1.03789,
2011-03-04, 01:14:05,VALID,916.61,VALID,0,VALID,97.1071,VALID,0,VALID,18.7488,VALID,130,VALID,0.951953,
2011-03-04, 01:15:05,VALID,916.612,VALID,0,VALID,97.1071,VALID,0,VALID,18.7293,VALID,130,VALID,0.822656,
2011-03-04, 01:16:05,VALID,916.602,VALID,0,VALID,97.1147,VALID,0,VALID,18.7098,VALID,130,VALID,0.683594,
2011-03-04, 01:17:05,VALID,916.591,VALID,0,VALID,97.1528,VALID,0,VALID,18.6875,VALID,130,VALID,0.960938,
2011-03-04, 01:18:05,VALID,916.551,VALID,0,VALID,97.1452,VALID,0,VALID,18.7084,VALID,130,VALID,0.803516,
2011-03-04, 01:19:05,VALID,916.545,VALID,0,VALID,97.1528,VALID,0,VALID,18.7308,VALID,130,VALID,0.482031,
2011-03-04, 01:20:05,VALID,916.514,VALID,0,VALID,97.1757,VALID,0,VALID,18.7098,VALID,130,VALID,0.510938,
2011-03-04, 01:21:05,VALID,916.53,VALID,0,VALID,97.1757,VALID,0,VALID,18.6471,VALID,130,VALID,0.617188,
2011-03-04, 01:22:05,VALID,916.485,VALID,0,VALID,97.1604,VALID,0,VALID,18.7084,VALID,130,VALID,0.510156,
2011-03-04, 01:23:05,VALID,916.534,VALID,0,VALID,97.1681,VALID,0,VALID,18.7098,VALID,130,VALID,0.372656,
2011-03-04, 01:24:05,VALID,916.513,VALID,0,VALID,97.1909,VALID,0,VALID,18.7279,VALID,130,VALID,0.672656,
2011-03-04, 01:25:05,VALID,916.511,VALID,0,VALID,97.1681,VALID,0,VALID,18.7084,VALID,130,VALID,0.589844,
2011-03-04, 01:26:05,VALID,916.484,VALID,0,VALID,97.2062,VALID,0,VALID,18.7697,VALID,130,VALID,0.651953,
2011-03-04, 01:27:05,VALID,916.482,VALID,0,VALID,97.1833,VALID,0,VALID,18.7279,VALID,130,VALID,0.86875,
2011-03-04, 01:28:05,VALID,916.476,VALID,0,VALID,97.1986,VALID,0,VALID,18.7042,VALID,130,VALID,0.771875,
2011-03-04, 01:29:05,VALID,916.437,VALID,0,VALID,97.2138,VALID,0,VALID,18.7864,VALID,130,VALID,0.744922,
2011-03-04, 01:30:05,VALID,916.433,VALID,0,VALID,97.2138,VALID,0,VALID,18.7251,VALID,130,VALID,0.510938,
2011-03-04, 01:31:05,VALID,916.468,VALID,0,VALID,97.2138,VALID,0,VALID,18.785,VALID,130,VALID,0.420312,
2011-03-04, 01:32:05,VALID,916.472,VALID,0,VALID,97.229,VALID,0,VALID,18.785,VALID,130,VALID,0.388672,
2011-03-04, 01:33:05,VALID,916.466,VALID,0,VALID,97.2062,VALID,0,VALID,18.8073,VALID,130,VALID,0,
2011-03-04, 01:34:05,VALID,916.456,VALID,0,VALID,97.0766,VALID,0,VALID,18.5886,VALID,130,VALID,0,
2011-03-04, 01:35:05,VALID,916.43,VALID,0,VALID,96.8021,VALID,0,VALID,18.3756,VALID,130,VALID,0.455859,
2011-03-04, 01:36:05,VALID,916.394,VALID,0,VALID,96.9394,VALID,0,VALID,18.2768,VALID,130,VALID,0.497656,
2011-03-04, 01:37:05,VALID,916.377,VALID,0,VALID,97.0766,VALID,0,VALID,18.2378,VALID,130,VALID,0.533203,
2011-03-04, 01:38:05,VALID,916.366,VALID,0,VALID,97.0461,VALID,0,VALID,18.2601,VALID,130,VALID,0.555469,
2011-03-04, 01:39:05,VALID,916.322,VALID,0,VALID,97.0842,VALID,0,VALID,18.1807,VALID,130,VALID,0.662891,
2011-03-04, 01:40:05,VALID,916.316,VALID,0,VALID,97.1833,VALID,0,VALID,18.242,VALID,130,VALID,0.708203,
2011-03-04, 01:41:05,VALID,916.327,VALID,0,VALID,97.2214,VALID,0,VALID,18.2016,VALID,130,VALID,0.536719,
2011-03-04, 01:42:05,VALID,916.334,VALID,0,VALID,97.2519,VALID,0,VALID,18.2406,VALID,130,VALID,0.295703,
2011-03-04, 01:43:05,VALID,916.343,VALID,0,VALID,97.2672,VALID,0,VALID,18.2809,VALID,130,VALID,0,
2011-03-04, 01:44:05,VALID,916.325,VALID,0,VALID,97.29,VALID,0,VALID,18.299,VALID,130,VALID,0,
2011-03-04, 01:45:05,VALID,916.298,VALID,0,VALID,97.2977,VALID,0,VALID,18.338,VALID,130,VALID,0,
2011-03-04, 01:46:05,VALID,916.284,VALID,0,VALID,97.29,VALID,0.107441,VALID,18.3561,VALID,130,VALID,0,
2011-03-04, 01:47:05,VALID,916.268,VALID,0,VALID,97.2824,VALID,0.107441,VALID,18.3366,VALID,130,VALID,0.0675781,
2011-03-04, 01:48:05,VALID,916.268,VALID,0,VALID,97.2443,VALID,0,VALID,18.2601,VALID,130,VALID,0.260156,
2011-03-04, 01:49:05,VALID,916.228,VALID,0,VALID,97.1071,VALID,0,VALID,18.1626,VALID,130,VALID,0.302734,
2011-03-04, 01:50:05,VALID,916.239,VALID,0,VALID,97.1833,VALID,0.107441,VALID,18.1028,VALID,130,VALID,0.501562,
2011-03-04, 01:51:05,VALID,916.216,VALID,0,VALID,97.2214,VALID,0.107441,VALID,18.1222,VALID,130,VALID,0.433203,
2011-03-04, 01:52:05,VALID,916.216,VALID,0,VALID,97.2824,VALID,0,VALID,18.1835,VALID,130,VALID,0.241016,
2011-03-04, 01:53:05,VALID,916.175,VALID,0,VALID,97.3129,VALID,0,VALID,18.2197,VALID,130,VALID,0.0316406,
2011-03-04, 01:54:05,VALID,916.144,VALID,0,VALID,97.3129,VALID,0,VALID,18.2573,VALID,130,VALID,0.115234,
2011-03-04, 01:55:05,VALID,916.12,VALID,0,VALID,97.3129,VALID,0,VALID,18.3158,VALID,130,VALID,0,
2011-03-04, 01:56:05,VALID,916.116,VALID,0,VALID,97.3281,VALID,0,VALID,18.3561,VALID,130,VALID,0.291016,
2011-03-04, 01:57:05,VALID,916.129,VALID,0,VALID,97.3129,VALID,0.107441,VALID,18.2977,VALID,130,VALID,0.290234,
2011-03-04, 01:58:05,VALID,916.13,VALID,0,VALID,97.2977,VALID,0,VALID,18.2587,VALID,130,VALID,0.0980469,
2011-03-04, 01:59:05,VALID,916.12,VALID,0,VALID,97.2824,VALID,0.107441,VALID,18.2406,VALID,130,VALID,0.261719,
2011-03-04, 02:00:05,VALID,916.109,VALID,0,VALID,97.2824,VALID,0.107441,VALID,18.1821,VALID,130,VALID,0.177734,
2011-03-04, 02:01:05,VALID,916.098,VALID,0,VALID,97.3129,VALID,0.107441,VALID,18.2211,VALID,130,VALID,0,
2011-03-04, 02:02:05,VALID,916.061,VALID,0,VALID,97.3129,VALID,0,VALID,18.2587,VALID,130,VALID,0,
2011-03-04, 02:03:05,VALID,916.052,VALID,0,VALID,97.3281,VALID,0.107441,VALID,18.3172,VALID,130,VALID,0.218359,
2011-03-04, 02:04:05,VALID,916.086,VALID,0,VALID,97.3281,VALID,0,VALID,18.3617,VALID,130,VALID,0.075,
2011-03-04, 02:05:05,VALID,916.107,VALID,0,VALID,97.351,VALID,0.107441,VALID,18.299,VALID,130,VALID,0,
2011-03-04, 02:06:05,VALID,916.074,VALID,0,VALID,97.351,VALID,0,VALID,18.2963,VALID,130,VALID,0,
2011-03-04, 02:07:05,VALID,916.089,VALID,0,VALID,97.3358,VALID,0,VALID,18.3589,VALID,130,VALID,0,
2011-03-04, 02:08:05,VALID,916.059,VALID,0,VALID,97.3434,VALID,0,VALID,18.3185,VALID,130,VALID,0,
2011-03-04, 02:09:05,VALID,916.036,VALID,0,VALID,97.3358,VALID,0,VALID,18.3172,VALID,130,VALID,0,
2011-03-04, 02:10:05,VALID,915.981,VALID,0,VALID,97.3663,VALID,0,VALID,18.4564,VALID,130,VALID,0,
2011-03-04, 02:11:05,VALID,915.992,VALID,0,VALID,97.3663,VALID,0,VALID,18.4564,VALID,130,VALID,0,
2011-03-04, 02:12:05,VALID,915.954,VALID,0,VALID,97.3663,VALID,0,VALID,18.4759,VALID,130,VALID,0,
2011-03-04, 02:13:05,VALID,915.949,VALID,0,VALID,97.351,VALID,0,VALID,18.5358,VALID,130,VALID,0,
2011-03-04, 02:14:05,VALID,915.936,VALID,0,VALID,97.3663,VALID,0,VALID,18.5734,VALID,130,VALID,0.0988281,
2011-03-04, 02:15:05,VALID,915.913,VALID,0,VALID,97.3663,VALID,0,VALID,18.455,VALID,130,VALID,0,
2011-03-04, 02:16:05,VALID,915.878,VALID,0,VALID,97.3663,VALID,0.107441,VALID,18.455,VALID,130,VALID,0.0523437,
2011-03-04, 02:17:05,VALID,915.892,VALID,0,VALID,97.351,VALID,0,VALID,18.4132,VALID,130,VALID,0,
2011-03-04, 02:18:05,VALID,915.892,VALID,0,VALID,97.3586,VALID,0.107441,VALID,18.3951,VALID,130,VALID,0,
2011-03-04, 02:19:05,VALID,915.881,VALID,0,VALID,97.3434,VALID,0.107441,VALID,18.3561,VALID,130,VALID,0.475,
2011-03-04, 02:20:05,VALID,915.877,VALID,0,VALID,97.3281,VALID,0.107441,VALID,18.3185,VALID,130,VALID,0.110156,
2011-03-04, 02:21:05,VALID,915.887,VALID,0,VALID,97.3129,VALID,0,VALID,18.2601,VALID,130,VALID,0.699219,
2011-03-04, 02:22:05,VALID,915.877,VALID,0,VALID,97.3129,VALID,0,VALID,18.2002,VALID,130,VALID,0.767187,
2011-03-04, 02:23:05,VALID,915.895,VALID,0,VALID,97.3129,VALID,0.107441,VALID,18.2002,VALID,130,VALID,0.619922,
2011-03-04, 02:24:05,VALID,915.888,VALID,0,VALID,97.3129,VALID,0.107441,VALID,18.2796,VALID,130,VALID,0.478516,
2011-03-04, 02:25:05,VALID,915.904,VALID,0,VALID,97.3358,VALID,0,VALID,18.2977,VALID,130,VALID,0.700781,
2011-03-04, 02:26:05,VALID,915.925,VALID,0,VALID,97.3129,VALID,0.107441,VALID,18.3004,VALID,130,VALID,0.365234,
2011-03-04, 02:27:05,VALID,915.912,VALID,0,VALID,97.3205,VALID,0.107441,VALID,18.2601,VALID,130,VALID,0.286328,
2011-03-04, 02:28:05,VALID,915.912,VALID,0,VALID,97.3205,VALID,0.107441,VALID,18.2392,VALID,130,VALID,0.282422,
2011-03-04, 02:29:05,VALID,915.95,VALID,0,VALID,97.3358,VALID,0,VALID,18.2601,VALID,130,VALID,0.413281,
2011-03-04, 02:30:05,VALID,915.908,VALID,0,VALID,97.3358,VALID,0,VALID,18.2601,VALID,130,VALID,0.457812,
2011-03-04, 02:31:05,VALID,915.96,VALID,0,VALID,97.3281,VALID,0,VALID,18.2615,VALID,130,VALID,0.603516,
2011-03-04, 02:32:05,VALID,915.941,VALID,0,VALID,97.3205,VALID,0,VALID,18.2615,VALID,130,VALID,0.600781,
2011-03-04, 02:33:05,VALID,915.933,VALID,0,VALID,97.3358,VALID,0,VALID,18.3004,VALID,130,VALID,0.587109,
2011-03-04, 02:34:05,VALID,915.947,VALID,0,VALID,97.3281,VALID,0,VALID,18.2796,VALID,130,VALID,0.500781,
2011-03-04, 02:35:05,VALID,915.923,VALID,0,VALID,97.351,VALID,0,VALID,18.3199,VALID,130,VALID,0.390625,
2011-03-04, 02:36:05,VALID,915.928,VALID,0,VALID,97.3205,VALID,0,VALID,18.2406,VALID,130,VALID,0.416797,
2011-03-04, 02:37:05,VALID,915.942,VALID,0,VALID,97.2443,VALID,0,VALID,18.086,VALID,130,VALID,0.4875,
2011-03-04, 02:38:05,VALID,915.923,VALID,0,VALID,97.0385,VALID,0,VALID,17.9482,VALID,130,VALID,0.578125,
2011-03-04, 02:39:05,VALID,915.912,VALID,0,VALID,97.1604,VALID,0,VALID,17.9482,VALID,130,VALID,0.424609,
2011-03-04, 02:40:05,VALID,915.9,VALID,0,VALID,97.1909,VALID,0,VALID,17.9496,VALID,130,VALID,0.458203,
2011-03-04, 02:41:05,VALID,915.906,VALID,0,VALID,97.2595,VALID,0,VALID,17.9496,VALID,130,VALID,0.824609,
2011-03-04, 02:42:05,VALID,915.9,VALID,0,VALID,97.29,VALID,0,VALID,17.9482,VALID,130,VALID,0.765234,
2011-03-04, 02:43:05,VALID,915.878,VALID,0,VALID,97.2595,VALID,0,VALID,17.9496,VALID,130,VALID,0.69375,
2011-03-04, 02:44:05,VALID,915.854,VALID,0,VALID,97.1909,VALID,0,VALID,17.9496,VALID,130,VALID,0.701563,
2011-03-04, 02:45:05,VALID,915.844,VALID,0,VALID,97.1833,VALID,0,VALID,17.9287,VALID,130,VALID,0.60625,
2011-03-04, 02:46:05,VALID,915.864,VALID,0,VALID,97.1223,VALID,0,VALID,17.9106,VALID,130,VALID,0.573438,
2011-03-04, 02:47:05,VALID,915.902,VALID,0,VALID,97.0613,VALID,0,VALID,17.8911,VALID,130,VALID,0.645312,
2011-03-04, 02:48:05,VALID,915.882,VALID,0,VALID,97.0156,VALID,0,VALID,17.8521,VALID,130,VALID,0.666016,
2011-03-04, 02:49:05,VALID,915.901,VALID,0,VALID,97.0461,VALID,0,VALID,17.8521,VALID,130,VALID,0.640234,
2011-03-04, 02:50:05,VALID,915.872,VALID,0,VALID,97.0461,VALID,0,VALID,17.8326,VALID,130,VALID,0.376172,
2011-03-04, 02:51:05,VALID,915.887,VALID,0,VALID,97.0537,VALID,0,VALID,17.8521,VALID,130,VALID,0,
2011-03-04, 02:52:05,VALID,915.872,VALID,0,VALID,97.0232,VALID,0,VALID,17.8521,VALID,130,VALID,0.388281,
2011-03-04, 02:53:05,VALID,915.91,VALID,0,VALID,97.0003,VALID,0,VALID,17.8521,VALID,130,VALID,0.394922,
2011-03-04, 02:54:05,VALID,915.908,VALID,0,VALID,97.0385,VALID,0,VALID,17.8716,VALID,130,VALID,0.299219,
2011-03-04, 02:55:05,VALID,915.898,VALID,0,VALID,97.0613,VALID,0,VALID,17.9106,VALID,130,VALID,0.549609,
2011-03-04, 02:56:05,VALID,915.915,VALID,0,VALID,97.0842,VALID,0,VALID,17.9496,VALID,130,VALID,0.472266,
2011-03-04, 02:57:05,VALID,915.913,VALID,0,VALID,97.0308,VALID,0,VALID,17.9886,VALID,130,VALID,0.208203,
2011-03-04, 02:58:05,VALID,915.902,VALID,0,VALID,97.0232,VALID,0,VALID,18.0289,VALID,130,VALID,0,
2011-03-04, 02:59:05,VALID,915.925,VALID,0,VALID,96.9851,VALID,0,VALID,18.008,VALID,130,VALID,0.224609,
2011-03-04, 03:00:05,VALID,915.883,VALID,0,VALID,96.9165,VALID,0,VALID,18.008,VALID,130,VALID,0,
2011-03-04, 03:01:05,VALID,915.882,VALID,0,VALID,96.9012,VALID,0,VALID,17.9872,VALID,130,VALID,0.128516,
2011-03-04, 03:02:05,VALID,915.859,VALID,0,VALID,96.8555,VALID,0,VALID,18.0067,VALID,130,VALID,0,
2011-03-04, 03:03:05,VALID,915.88,VALID,0,VALID,96.7793,VALID,0,VALID,17.9872,VALID,130,VALID,0,
2011-03-04, 03:04:05,VALID,915.854,VALID,0,VALID,96.6649,VALID,0,VALID,17.9079,VALID,130,VALID,0,
2011-03-04, 03:05:05,VALID,915.857,VALID,0,VALID,96.5201,VALID,0,VALID,17.8313,VALID,130,VALID,0,
2011-03-04, 03:06:05,VALID,915.816,VALID,0,VALID,96.421,VALID,0.107441,VALID,17.7533,VALID,130,VALID,0,
2011-03-04, 03:07:05,VALID,915.799,VALID,0,VALID,96.4591,VALID,0,VALID,17.7338,VALID,130,VALID,0.348437,
2011-03-04, 03:08:05,VALID,915.793,VALID,0,VALID,96.4515,VALID,0,VALID,17.7143,VALID,130,VALID,0.458203,
2011-03-04, 03:09:05,VALID,915.764,VALID,0,VALID,96.5124,VALID,0,VALID,17.7143,VALID,130,VALID,0.440234,
2011-03-04, 03:10:05,VALID,915.765,VALID,0,VALID,96.4362,VALID,0,VALID,17.7338,VALID,130,VALID,0.437891,
2011-03-04, 03:11:05,VALID,915.77,VALID,0,VALID,96.3219,VALID,0,VALID,17.7728,VALID,130,VALID,0.464453,
2011-03-04, 03:12:05,VALID,915.806,VALID,0,VALID,96.1618,VALID,0,VALID,17.7923,VALID,130,VALID,0.127734,
2011-03-04, 03:13:05,VALID,915.818,VALID,0,VALID,95.9788,VALID,0,VALID,17.8313,VALID,130,VALID,0,
2011-03-04, 03:14:05,VALID,915.833,VALID,0,VALID,95.7577,VALID,0,VALID,17.8313,VALID,130,VALID,0,
2011-03-04, 03:15:05,VALID,915.819,VALID,0,VALID,95.529,VALID,0,VALID,17.8508,VALID,130,VALID,0,
2011-03-04, 03:16:04,VALID,915.837,VALID,0,VALID,95.3308,VALID,0,VALID,17.8716,VALID,130,VALID,0,
2011-03-04, 03:17:04,VALID,915.793,VALID,0,VALID,95.0411,VALID,0,VALID,17.8702,VALID,130,VALID,0.46875,
2011-03-04, 03:18:04,VALID,915.826,VALID,0,VALID,94.7057,VALID,0,VALID,17.8897,VALID,130,VALID,0.0949219,
2011-03-04, 03:19:04,VALID,915.792,VALID,0,VALID,94.3398,VALID,0,VALID,17.9301,VALID,130,VALID,0,
2011-03-04, 03:20:04,VALID,915.768,VALID,0,VALID,94.0806,VALID,0,VALID,17.9092,VALID,130,VALID,0.0601562,
2011-03-04, 03:21:04,VALID,915.8,VALID,0,VALID,93.9967,VALID,0,VALID,17.9287,VALID,130,VALID,0,
2011-03-04, 03:22:04,VALID,915.762,VALID,0,VALID,93.7528,VALID,0,VALID,17.9092,VALID,130,VALID,0.140234,
2011-03-04, 03:23:04,VALID,915.751,VALID,0,VALID,93.7299,VALID,0,VALID,17.8897,VALID,130,VALID,0.299609,
2011-03-04, 03:24:04,VALID,915.74,VALID,0,VALID,93.7985,VALID,0,VALID,17.9092,VALID,130,VALID,0.294141,
2011-03-04, 03:25:04,VALID,915.708,VALID,0,VALID,93.6003,VALID,0,VALID,17.9482,VALID,130,VALID,0.429688,
2011-03-04, 03:26:04,VALID,915.734,VALID,0,VALID,93.1886,VALID,0,VALID,18.0067,VALID,130,VALID,0.585547,
2011-03-04, 03:27:04,VALID,915.725,VALID,0,VALID,93.0895,VALID,0,VALID,18.0457,VALID,130,VALID,0.605469,
2011-03-04, 03:28:04,VALID,915.738,VALID,0,VALID,92.9142,VALID,0,VALID,18.0651,VALID,130,VALID,0.510547,
2011-03-04, 03:29:04,VALID,915.755,VALID,0,VALID,93.0133,VALID,0.107441,VALID,18.0262,VALID,130,VALID,0.466016,
2011-03-04, 03:30:04,VALID,915.739,VALID,0,VALID,93.5317,VALID,0,VALID,18.0067,VALID,130,VALID,0.519922,
2011-03-04, 03:31:04,VALID,915.729,VALID,0,VALID,93.7451,VALID,0,VALID,18.0067,VALID,130,VALID,0.365625,
2011-03-04, 03:32:04,VALID,915.741,VALID,0,VALID,94.1568,VALID,0,VALID,18.0665,VALID,130,VALID,0.6125,
2011-03-04, 03:33:04,VALID,915.723,VALID,0,VALID,94.3855,VALID,0,VALID,18.0665,VALID,130,VALID,0.760156,
2011-03-04, 03:34:04,VALID,915.721,VALID,0,VALID,94.4922,VALID,0,VALID,18.0262,VALID,130,VALID,0.854688,
2011-03-04, 03:35:04,VALID,915.703,VALID,0,VALID,94.2864,VALID,0,VALID,18.0457,VALID,130,VALID,0.912109,
2011-03-04, 03:36:04,VALID,915.687,VALID,0,VALID,94.3474,VALID,0,VALID,18.0846,VALID,130,VALID,0.834766,
2011-03-04, 03:37:04,VALID,915.668,VALID,0,VALID,94.4617,VALID,0,VALID,18.0651,VALID,130,VALID,0.79375,
2011-03-04, 03:38:04,VALID,915.697,VALID,0,VALID,94.6752,VALID,0,VALID,18.0846,VALID,130,VALID,0.717578,
2011-03-04, 03:39:04,VALID,915.656,VALID,0,VALID,94.8124,VALID,0,VALID,18.0846,VALID,130,VALID,0.46875,
2011-03-04, 03:40:04,VALID,915.663,VALID,0,VALID,94.9268,VALID,0,VALID,18.0846,VALID,130,VALID,0.553906,
2011-03-04, 03:41:04,VALID,915.658,VALID,0,VALID,95.0564,VALID,0,VALID,18.0651,VALID,130,VALID,0.344922,
2011-03-04, 03:42:04,VALID,915.638,VALID,0,VALID,95.2165,VALID,0,VALID,18.0651,VALID,130,VALID,0.651953,
2011-03-04, 03:43:04,VALID,915.643,VALID,0,VALID,95.3994,VALID,0,VALID,18.086,VALID,130,VALID,0.60625,
2011-03-04, 03:44:04,VALID,915.646,VALID,0,VALID,95.3384,VALID,0,VALID,17.9886,VALID,130,VALID,0.369141,
2011-03-04, 03:45:04,VALID,915.637,VALID,0,VALID,95.5748,VALID,0,VALID,17.9872,VALID,130,VALID,0.0421875,
2011-03-04, 03:46:04,VALID,915.61,VALID,0,VALID,95.7349,VALID,0,VALID,17.9677,VALID,130,VALID,0.122656,